Location: *
(49.9853°N, 3.5569°E)
Time: 08:33:30
(UTC+00:00)

SAR-Lupe-2 - Pass Details

Date: 22 September 2019
Orbit: 481 x 485 km, 98.2° (Epoch: 07 October)

Event Time Altitude Azimuth Distance (km) Brightness Sun altitude
Rises 19:04:27 0° 16° (NNE) 2,563 7.3 -13.5°
Reaches altitude 10° 19:06:32 10° 18° (NNE) 1,677 6.3 -13.8°
Maximum altitude 19:10:08 72° 103° (ESE) 514 3.4 -14.3°
Drops below altitude 10° 19:13:41 10° 189° (S) 1,659 6.2 -14.9°
Sets 19:15:44 0° 191° (S) 2,533 7.1 -15.2°
